Lapse_Rate
1.1 0.9 0.7 0.6 0.4 0.5 0.7 0.6 0.8 0.9 0.8 0.6 0.6 0.8 0.7 0.4 0.4 1.1 3.8 5.4 5.8 6.2 5.7 5.1 6.2 6.3 6.6 6.0 6.5 4.5 6.5 6.5 6.5 6.5 6.5 5.6 6.3 5.3 4.1 5.3 4.8 5.3 5.8 4.8 3.6
0.8 0.6 0.4 0.3 0.4 0.3 0.4 0.5 0.6 0.7 0.4 0.3 0.6 0.8 0.7 0.3 0.5 4.3 6.6 6.6 6.8 6.3 6.2 6.2 6.5 6.7 4.9 5.9 5.1 5.5 6.5 6.5 6.5 6.5 6.5 6.1 6.3 6.2 5.8 4.9 5.1 4.7 5.1 4.7 3.2
0.8 0.5 0.3 0.1 -0.1 -0.0 0.2 0.1 0.1 0.2 0.3 0.2 0.2 0.5 0.6 0.5 3.7 6.1 6.9 6.6 6.2 5.9 5.8 5.7 6.8 6.9 6.1 6.0 5.5 5.8 6.5 6.5 6.2 5.5 5.4 6.0 6.2 5.6 6.0 6.5 4.1 5.1 4.1 5.6 5.0
0.5 0.2 -0.1 -0.2 -0.3 -0.3 0.1 0.2 0.1 0.1 0.2 0.0 0.0 0.6 0.7 0.3 6.5 6.3 6.7 6.6 6.3 6.1 6.0 5.9 6.6 6.2 6.4 6.5 5.8 6.5 5.8 6.0 5.8 5.5 5.2 6.4 5.7 5.9 4.9 5.1 4.1 4.8 5.1 3.9 4.4
0.5 0.3 0.0 -0.3 -0.4 -0.2 -0.0 0.1 0.2 0.0 0.2 0.3 0.1 0.6 0.9 3.7 6.3 6.6 6.9 6.6 6.5 6.1 6.2 6.4 6.4 6.3 6.5 6.3 5.9 6.5 6.4 5.6 5.3 4.8 5.2 5.1 5.7 5.9 5.6 4.3 4.1 4.2 4.5 3.8 2.9
0.5 0.2 -0.1 -0.2 -0.2 -0.1 -0.0 0.3 0.5 0.5 0.9 1.2 1.2 1.2 2.8 5.8 7.0 7.3 7.1 6.8 6.9 6.6 6.0 6.1 6.4 6.4 5.8 6.3 6.5 5.9 5.8 5.7 5.2 5.4 5.9 6.3 6.2 6.2 4.8 4.2 4.7 4.7 4.0 3.7 3.6
0.4 0.0 -0.2 -0.2 -0.1 0.0 0.1 0.6 0.9 1.0 1.3 2.0 2.4 2.6 4.6 6.6 6.9 6.7 7.2 7.2 7.8 7.2 6.4 6.7 6.4 6.7 5.9 6.5 5.7 5.9 6.5 6.5 6.1 5.6 6.2 5.6 6.5 6.5 4.2 4.6 4.7 4.8 4.8 3.9 3.6
0.2 -0.1 -0.2 -0.2 -0.0 0.1 0.1 0.7 1.3 1.3 1.9 2.6 3.1 3.3 6.1 7.4 7.6 7.0 6.4 7.1 7.1 7.6 7.6 6.9 7.0 6.6 6.4 5.5 5.9 6.5 6.5 6.5 6.5 6.4 6.0 6.4 6.5 6.5 4.8 4.7 4.8 5.0 4.5 5.2 1.3
-0.1 -0.4 -0.6 -0.4 -0.1 0.0 0.0 0.7 1.8 1.9 2.7 3.1 3.8 5.1 6.5 7.7 6.8 7.0 6.3 6.5 6.3 7.0 6.5 8.2 7.4 6.2 5.7 6.5 6.5 6.5 6.5 6.5 6.5 6.5 6.5 6.5 6.5 6.5 6.3 6.4 6.3 6.2 5.8 5.2 4.1
-0.1 -0.4 -0.5 -0.2 0.2 0.4 0.4 2.1 3.2 2.3 3.5 3.8 5.2 5.7 6.2 6.5 7.1 6.1 5.5 5.8 6.6 6.3 5.8 6.3 4.8 6.5 6.5 6.5 6.5 6.5 6.5 6.5 6.5 6.5 6.5 6.5 6.5 6.5 6.3 6.0 6.0 7.1 7.0 6.9 7.0
-0.2 -0.5 -0.3 0.0 0.4 0.9 -0.2 0.8 2.1 3.6 4.0 6.1 6.1 6.3 7.1 7.2 6.6 6.1 5.1 4.6 5.3 5.6 6.5 5.7 6.5 6.5 6.5 6.5 6.5 6.5 6.5 6.5 6.5 6.5 6.5 6.5 6.5 6.5 6.7 6.8 6.8 6.9 7.0 7.1 7.4
-0.2 -0.4 -0.0 0.3 0.6 1.6 -0.5 -0.2 2.6 3.7 5.7 6.3 6.4 6.6 7.3 6.4 5.9 6.9 5.5 5.1 5.8 6.5 6.2 6.5 6.5 6.5 6.5 6.5 6.5 6.5 6.5 6.5 6.5 6.5 6.5 6.5 6.5 6.5 6.6 6.7 7.0 7.0 7.1 7.4 7.6
-0.3 -0.2 0.2 0.3 0.9 -0.0 0.5 2.1 3.0 4.1 5.3 6.6 6.3 6.3 6.6 6.4 6.7 6.4 5.9 5.5 6.2 6.5 6.5 6.5 6.5 6.6 6.5 6.5 6.5 6.5 6.5 6.5 6.5 6.5 6.5 6.5 6.5 6.5 6.5 7.0 7.2 7.1 7.4 7.3 7.1
-0.1 -0.0 0.2 0.9 1.9 0.9 1.6 2.6 3.6 4.3 6.5 6.5 6.3 6.3 6.4 6.2 6.6 6.2 4.8 6.0 6.1 6.5 6.5 6.5 6.6 6.5 6.5 6.5 6.5 6.5 6.5 6.5 6.5 6.5 6.5 6.5 6.5 6.5 6.5 6.5 6.6 7.0 6.9 6.9 7.0
0.1 0.5 0.6 1.2 0.7 1.6 2.7 3.0 3.8 3.9 6.5 6.5 6.4 7.1 6.1 6.0 6.2 7.0 6.3 6.4 6.5 6.5 6.5 6.5 6.5 6.5 6.5 6.5 6.5 6.5 6.5 6.5 6.5 6.5 6.5 6.5 6.5 6.5 6.5 6.5 6.5 6.6 7.0 7.0 6.8
0.4 0.9 0.7 0.2 -0.6 1.2 1.3 2.8 3.5 6.5 6.5 6.5 6.3 6.5 6.3 6.4 6.4 6.7 7.2 5.9 6.5 6.5 6.5 6.5 6.6 6.5 6.5 6.5 6.5 6.5 6.5 6.5 6.5 6.5 6.5 6.5 6.5 6.5 6.5 6.5 6.5 6.7 7.0 7.1 6.8
0.5 1.2 0.4 0.9 1.1 0.8 1.1 2.8 6.5 6.5 6.5 6.5 6.5 6.5 6.5 6.5 6.5 6.5 6.5 6.5 6.5 6.5 6.5 6.5 6.5 6.5 6.4 6.5 6.5 6.5 6.5 6.5 6.5 6.5 6.5 6.5 6.5 6.5 6.5 6.5 6.6 6.6 6.9 7.0 7.0
0.4 1.4 1.2 2.6 1.1 0.4 0.7 6.2 6.5 6.5 6.5 6.5 6.5 6.5 6.5 6.5 6.5 6.5 6.5 6.5 6.5 6.5 6.5 6.5 6.5 6.5 6.5 6.5 6.5 6.5 6.5 6.5 6.5 6.5 6.5 6.5 6.5 6.5 6.5 6.7 6.9 7.1 7.2 7.6 7.5
0.5 0.1 0.8 0.9 1.0 -0.7 2.1 6.5 6.5 6.5 6.5 6.5 6.5 6.5 6.5 6.5 6.5 6.5 6.5 6.5 6.5 6.5 6.5 6.5 6.5 6.5 6.5 6.4 6.5 6.5 6.5 6.5 6.5 6.5 6.5 6.5 6.5 6.5 6.5 6.5 6.6 6.7 7.2 7.0 7.4
-0.6 1.0 2.1 1.5 0.7 -0.5 5.3 6.5 6.5 6.4 6.4 6.5 6.5 6.5 6.5 6.5 6.5 6.5 6.5 6.5 6.5 6.4 6.2 6.5 6.5 6.5 6.5 6.2 6.3 6.5 6.5 6.5 6.5 6.5 6.5 6.5 6.5 6.5 6.5 6.5 6.5 6.5 6.4 6.6 7.2
-0.3 2.7 2.8 0.5 -0.4 0.7 6.5 6.5 6.5 6.6 6.3 6.5 6.5 6.5 6.5 6.5 6.5 6.5 6.5 6.5 6.5 6.5 6.1 6.5 6.5 6.5 6.5 6.5 6.5 6.5 6.5 6.5 6.5 6.5 6.5 6.5 6.5 6.5 6.5 6.5 6.5 6.2 6.4 6.4 6.9
-0.2 5.6 2.5 -0.4 3.2 4.4 6.5 6.5 6.8 6.3 5.6 6.2 6.4 6.5 6.5 6.5 6.5 6.5 6.5 6.5 6.1 6.5 6.5 6.5 6.5 6.5 6.5 6.5 6.5 6.5 6.5 6.5 6.5 6.5 6.5 6.5 6.5 6.5 6.5 4.8 6.2 6.4 6.9 7.3 7.5
1.2 1.7 1.3 0.3 6.5 6.5 6.4 6.5 6.3 6.5 6.4 6.5 6.5 6.4 6.5 6.5 6.5 6.5 6.5 6.6 6.2 6.3 6.5 6.5 6.5 6.5 6.5 6.5 6.5 6.5 6.5 6.5 6.5 6.5 6.5 6.5 6.5 6.4 6.2 6.4 6.8 6.7 7.1 7.4 7.8
0.7 6.5 2.1 1.2 2.7 6.2 6.5 6.5 6.5 6.3 6.5 6.4 6.5 6.3 6.5 6.5 6.5 6.5 6.5 6.5 6.1 6.0 7.2 6.2 6.5 6.5 6.5 6.5 6.5 6.5 6.5 6.5 6.5 6.5 6.5 6.5 6.5 6.5 6.5 6.5 6.6 6.8 7.1 7.1 7.5
-0.6 5.1 5.0 6.5 5.8 5.6 6.1 6.5 6.5 6.5 6.5 5.9 6.5 6.5 6.5 6.5 6.5 6.5 6.5 6.5 6.3 6.7 5.5 6.4 6.5 6.5 6.5 6.5 6.5 6.5 6.5 6.5 6.5 6.5 6.5 6.5 6.5 6.5 6.5 6.5 6.6 6.9 7.3 7.4 7.5
1.7 3.0 2.0 4.1 5.5 6.0 6.4 6.5 6.5 6.5 6.5 6.5 6.5 6.5 6.5 6.5 6.5 6.5 6.5 6.5 6.5 6.0 6.5 6.4 6.5 6.5 6.5 6.5 6.5 6.5 6.5 6.5 6.5 6.5 6.5 6.5 6.5 6.5 6.6 6.8 6.7 6.9 7.3 7.4 7.5
-1.4 1.2 1.9 5.6 5.6 6.4 6.5 6.5 6.5 6.4 6.4 6.5 6.5 6.5 6.5 6.5 5.8 5.2 5.2 5.4 5.6 6.5 6.5 6.5 6.5 6.5 6.5 6.5 6.5 6.5 6.5 6.5 6.5 6.5 6.5 6.5 6.5 6.7 6.5 6.9 6.9 7.1 7.1 7.3 7.7
Wind_Speed
20 20 19 19 19 17 17 16 15 15 16 16 15 13 11 11 12 2 4 4 4 6 4 4 1 3 3 2 1 3 2 4 5 5 4 4 6 4 6 4 5 3 1 4 3
21 21 21 20 19 18 18 17 16 16 17 15 13 11 8 8 2 6 9 7 6 4 4 4 3 2 2 2 1 3 3 8 6 2 3 4 2 3 4 5 5 5 3 3 2
21 21 21 21 20 19 18 18 17 17 16 12 11 8 5 4 2 4 13 9 7 4 3 2 3 1 2 1 3 5 6 5 4 5 4 5 4 4 4 5 7 7 7 2 3
22 23 23 23 22 20 19 18 17 17 13 12 9 5 3 1 3 3 9 10 8 6 4 5 4 3 2 4 3 5 7 5 6 7 7 10 4 6 8 9 10 9 6 6 7
23 23 24 23 22 22 21 19 18 12 10 10 6 4 1 6 3 5 8 9 7 5 3 3 2 1 3 3 6 5 5 6 7 11 6 7 9 11 5 15 9 8 8 10 10
23 24 24 23 22 21 20 19 17 10 9 9 6 4 2 6 5 10 9 6 3 3 5 5 3 3 4 3 2 4 7 8 8 15 7 14 14 2 10 9 7 8 9 10 10
23 24 24 23 22 21 19 17 12 7 6 6 6 3 12 3 4 11 7 4 3 1 2 1 1 2 3 6 3 6 7 7 11 8 6 6 3 6 15 6 9 9 9 12 9
24 24 24 23 24 22 18 15 10 5 5 5 5 1 5 2 5 7 8 4 6 4 2 3 2 0 3 4 6 5 2 2 5 6 4 3 4 4 12 9 12 8 7 4 9
25 25 25 24 25 24 21 15 5 4 5 6 2 3 2 2 6 5 7 6 6 2 4 2 2 1 5 4 4 3 6 6 7 18 14 6 9 14 19 17 16 17 13 7 13
26 25 23 22 24 25 21 3 3 1 0 2 1 4 5 6 2 7 9 4 3 4 5 4 4 3 5 6 5 10 10 8 6 13 17 8 10 12 15 13 13 17 19 17 16
27 26 23 21 22 23 6 3 5 6 9 4 3 4 3 3 8 11 7 7 6 7 5 5 8 7 9 9 6 7 7 8 10 11 15 12 12 12 18 21 17 17 16 15 16
26 25 23 20 16 15 5 5 3 2 5 5 5 4 3 2 7 18 11 7 6 5 8 7 6 8 9 14 11 8 8 9 10 18 14 15 11 16 19 16 16 16 17 18 18
27 26 24 23 4 7 6 4 7 2 4 3 3 4 5 12 9 14 13 6 6 6 6 1 7 12 13 18 17 6 10 16 17 16 8 9 4 14 18 20 18 16 15 16 16
26 25 24 23 6 0 4 6 6 1 4 6 6 7 8 2 7 14 12 5 10 6 6 7 5 8 13 18 12 9 13 15 17 13 9 4 4 15 18 20 22 21 18 13 14
24 22 20 15 1 4 5 8 3 2 4 5 4 4 8 8 5 14 14 7 7 8 6 5 8 11 13 13 10 7 17 16 18 16 5 4 2 7 15 16 19 18 20 18 14
22 19 17 6 3 3 4 2 2 5 2 4 4 5 6 10 6 5 14 6 4 3 8 3 4 5 2 9 7 14 13 10 6 3 1 6 4 9 8 12 15 18 19 19 19
20 13 5 1 3 5 2 3 4 5 5 6 4 5 4 7 9 9 11 19 9 5 6 7 5 9 3 14 12 13 12 4 5 4 3 9 6 6 11 14 13 15 16 16 16
22 8 2 1 7 1 2 4 5 3 3 3 4 3 5 9 4 10 6 5 7 3 1 5 6 7 6 9 9 8 3 0 4 3 7 4 3 2 6 9 9 11 13 14 15
12 3 3 5 3 2 5 6 2 1 4 7 6 5 4 5 3 5 5 5 6 6 3 5 4 7 13 7 6 6 5 5 4 4 1 4 4 6 16 14 15 15 17 16 12
2 2 3 20 2 4 6 5 2 4 4 3 4 6 6 5 6 5 4 4 3 5 2 3 3 5 10 7 7 3 5 4 1 3 5 3 3 4 16 18 18 17 17 17 12
3 3 3 18 4 7 4 3 4 4 4 4 2 4 2 4 3 3 6 2 3 5 4 1 1 6 4 4 4 5 4 3 2 4 3 3 4 4 6 9 15 15 15 14 14
2 3 5 5 5 3 3 3 3 4 5 5 3 4 2 4 4 2 2 1 4 1 4 2 1 4 6 4 3 5 4 3 2 3 3 1 2 3 4 6 12 15 17 13 14
3 1 4 4 4 3 3 4 3 3 4 3 3 4 2 1 1 3 3 2 5 5 3 2 2 3 6 3 4 5 8 9 3 1 2 1 4 5 10 14 15 15 17 14 16
3 3 4 5 2 6 5 2 3 3 3 3 3 4 4 2 4 2 3 2 5 4 10 4 1 4 4 8 1 2 10 9 3 2 3 3 7 11 15 18 20 18 18 12 15
4 1 1 3 4 5 4 3 2 2 2 6 3 3 1 2 3 2 3 4 4 6 6 2 2 3 6 4 3 4 5 10 4 4 2 5 5 6 13 15 16 18 17 14 18
3 4 3 2 2 5 5 2 2 1 2 2 2 4 2 3 2 2 3 2 4 5 5 4 2 4 2 6 6 4 7 4 9 5 4 7 4 11 13 14 15 19 16 16 21
1 3 4 4 3 3 1 3 1 4 3 4 2 2 2 3 5 7 7 5 5 1 3 3 2 3 3 4 6 3 5 6 11 1 4 3 7 11 16 18 18 17 10 19 21
Wind_Direction
0 358 357 354 351 348 346 342 339 335 332 327 323 321 326 338 326 90 38 313 320 318 333 318 303 326 29 333 205 102 70 225 243 198 241 15 24 317 306 319 335 318 112 237 145
358 355 353 351 348 345 344 342 341 338 334 330 326 324 333 345 337 60 347 342 328 331 357 6 352 339 351 272 285 122 168 221 223 213 319 299 244 306 332 320 302 321 331 78 323
355 352 350 347 346 344 342 341 340 338 338 341 339 338 349 346 77 7 2 8 8 19 342 301 292 252 231 291 216 191 216 219 273 290 293 280 284 220 236 252 236 267 292 289 263
353 351 349 345 344 342 341 338 339 340 343 349 348 353 345 194 84 292 345 353 355 352 5 354 16 0 270 238 263 267 255 244 286 285 290 283 286 258 208 249 226 220 237 284 231
352 349 347 344 343 340 339 337 341 346 354 360 8 360 245 56 64 309 344 340 344 348 13 11 357 263 260 287 325 258 268 283 305 291 275 260 246 259 295 257 275 244 255 260 276
351 348 345 342 341 339 336 335 341 349 356 13 15 344 5 71 291 328 335 335 14 29 359 27 324 252 250 265 233 299 300 295 290 291 279 275 286 276 253 265 272 260 272 263 248
350 346 343 340 338 337 334 330 336 336 341 353 1 359 63 89 344 332 343 300 326 47 8 11 327 16 7 306 277 262 285 291 270 264 251 304 351 236 269 312 268 278 268 271 256
348 347 343 340 338 335 331 323 318 308 321 325 344 18 95 310 347 13 340 359 349 293 206 277 320 274 193 284 325 293 7 359 306 350 302 137 287 330 357 358 329 306 288 1 57
348 346 344 341 337 330 329 320 291 273 292 311 22 86 58 3 21 340 10 313 312 306 301 286 59 323 349 341 328 323 273 291 318 21 4 348 331 349 359 360 347 330 313 308 50
346 344 343 341 337 330 340 53 51 6 147 273 298 54 15 327 357 335 330 310 271 331 7 26 42 19 7 13 310 324 313 326 331 352 353 337 339 344 327 324 336 11 29 26 31
345 343 343 341 340 334 11 25 21 355 34 73 324 88 22 38 65 1 338 341 1 46 9 335 58 16 26 14 346 349 344 343 357 2 342 331 317 314 13 18 33 19 21 19 16
344 341 341 341 343 359 42 60 52 329 68 5 70 61 3 53 39 6 353 43 30 44 7 17 74 352 65 32 21 35 9 346 312 352 332 314 318 43 42 34 31 20 17 11 10
345 342 340 337 351 46 69 43 336 347 89 23 58 35 6 61 31 358 10 1 29 32 1 81 11 56 43 28 5 12 11 337 312 323 262 358 336 35 9 20 21 27 20 23 17
345 343 344 339 62 312 64 323 354 124 88 343 353 3 357 125 71 34 1 9 16 5 348 86 33 45 36 19 1 330 352 319 309 320 309 99 270 39 8 15 17 5 8 14 12
345 344 349 25 159 51 306 327 333 63 28 336 26 14 15 74 329 19 353 31 37 55 36 327 38 28 35 356 350 299 315 298 283 276 281 284 114 345 16 9 1 356 4 2 22
345 345 346 16 38 145 321 315 61 52 248 344 37 32 26 38 16 106 36 33 54 56 18 46 13 45 48 328 322 312 326 303 284 248 11 69 18 35 16 359 355 358 360 357 349
340 337 353 17 298 326 1 81 31 98 347 351 333 6 79 11 17 17 39 44 52 8 26 331 22 354 356 352 335 352 344 329 357 7 310 331 55 37 5 360 357 351 351 353 350
332 325 346 139 317 56 77 50 72 34 345 2 348 21 75 11 45 29 51 44 27 51 353 18 342 1 325 337 342 332 328 316 299 306 283 308 78 84 359 354 345 348 346 353 358
336 352 16 327 349 84 72 49 137 326 291 334 334 53 49 357 30 56 67 23 25 13 38 13 288 322 344 331 347 325 345 298 260 239 241 91 27 261 0 353 354 359 354 354 6
56 55 345 341 31 60 69 110 99 24 339 7 26 34 23 1 28 29 39 329 20 37 15 356 293 307 337 354 8 1 332 351 345 333 315 63 92 341 345 347 346 354 349 347 3
50 43 278 350 52 51 85 75 104 32 23 34 49 36 75 7 1 38 359 88 8 348 33 6 133 296 354 16 20 358 353 315 259 340 330 338 280 259 320 330 337 346 344 346 358
78 44 311 12 51 49 65 96 63 2 13 48 90 69 61 8 1 67 91 20 315 255 346 259 185 289 283 199 118 77 326 316 351 349 340 114 234 280 279 318 342 344 341 343 349
77 314 331 58 90 72 65 64 78 45 23 38 47 76 15 3 23 47 23 302 337 359 294 313 4 334 336 274 355 59 4 336 295 206 2 25 277 23 360 347 345 340 338 335 343
68 27 356 35 26 114 124 109 119 46 60 64 78 64 18 22 29 135 341 21 350 338 14 22 214 170 237 271 242 52 23 359 10 43 279 222 283 360 350 343 336 335 333 331 340
32 73 189 12 18 79 87 91 100 13 57 40 85 57 358 286 354 28 3 334 330 335 350 66 256 291 300 144 98 90 44 26 12 303 172 300 311 338 345 327 320 321 325 332 339
102 122 23 97 106 71 19 69 106 76 64 60 53 329 6 146 132 250 28 271 264 326 329 350 278 341 230 173 161 104 30 20 1 347 315 325 308 355 321 319 323 322 327 333 337
15 30 98 344 56 68 324 142 135 139 47 84 141 17 316 216 213 228 209 237 242 337 290 339 320 1 287 269 136 226 360 346 341 78 312 341 330 326 326 327 327 316 330 335 324